Карточка аэропорта UATT

Внимание!
Информация на этой странице в стадии наполнения.
Если вы не увидели какой-то информации, или заметили неточность - пожалуйста сообщите нам!
Спасибо!
Команда RU-STAFF
Название аэропортаАктобе
Название аэропорта (англ.)Aktobe
Превышение738 ft. (224.9 m.)
Координаты50°14.748', 57°12.402'
Высота перехода10000ft
Эшелон переходаFL120, QNH<733:FL130
Коды ответчика3440-3447, 3540-3547
Зона ОрВДАктобе РПИ (UATT)
Данные METARUATT 100230Z 06002MPS CAVOK 19/08 Q1018 NOSIG RMK QFE743/0991
Проноз погоды (TAF)UATT 091700Z 0918/1018 36003MPS CAVOK TX32/1012Z TN16/1001Z TEMPO 0918/1003 08003MPS 3100 FU TEMPO 1003/1013 06005MPS
NOTAMshow/hide NOTAM
AWOS   TABLE

Информация о ВПП

ВПП Длина ВПП (м.) Покрытие Курс ВПП Частота ILS
133202Бетон135111.7
313202Бетон315111.7

Диспетчерские позиции




Спутниковое изображение